Seattle Boeing, WA

8:55 PM PST on January 21, 2018 (GMT -0800)
Boeing Field-King County International

Weather History for KBFI - March, 2013

Change the Weather History Date:

Friday, March 22, 2013

  Actual Average Record
Temperature  
Mean Temperature 42 °F -  
Max Temperature 48 °F 54 °F 68 °F (1979)
Min Temperature 36 °F 39 °F 28 °F (1952)
Degree Days  
Heating Degree Days 23    
Moisture  
Dew Point 30 °F    
Average Humidity 66    
Maximum Humidity 89    
Minimum Humidity 41    
Precipitation  
Precipitation 0.01 in - - ()
Sea Level Pressure  
Sea Level Pressure 30.31 in    
Wind  
Wind Speed 5 mph (ESE)    
Max Wind Speed 13 mph    
Max Gust Speed -    
Visibility 10 miles    
Events Rain    
Averages and records for this station are not official NWS values.
T = Trace of Precipitation, MM = Missing Value Source: NWS Daily Summary

Daily Weather History Graph

Daily Weather History Graph

Search for Another Location

Airport or City:

Trip Planner

Search our weather history database for the weather conditions in past years. The results will help you decide how hot, cold, wet, or windy it might be!

Date:

Astronomy

Mar. 22, 2013 Rise Set
Actual Time 7:07 AM PDT 7:25 PM PDT
Civil Twilight 6:36 AM PDT 7:56 PM PDT
Nautical Twilight 6:00 AM PDT 8:32 PM PDT
Astronomical Twilight 5:23 AM PDT 9:10 PM PDT
Moon 2:41 PM PDT 4:28 AM PDT
Length of Visible Light 13h 19m
Length of Day
12h 17m
Waxing Gibbous, 78% of the Moon is Illuminated
Mar 22
Waxing Gibbous
Mar 27
Full
Apr 2
Last Quarter
Apr 10
New
Apr 18
First Quarter

Hourly Weather History & Observations

Time (PDT) Temp. Windchill Dew Point Humidity Pressure Visibility Wind Dir Wind Speed Gust Speed Precip Events Conditions
12:53 AM 36.0 °F 31.1 °F 33.1 °F 89% 30.23 in 10.0 mi SE 5.8 mph - N/A   Clear
1:53 AM 37.0 °F 33.3 °F 32.0 °F 82% 30.24 in 10.0 mi ESE 4.6 mph - N/A   Partly Cloudy
2:53 AM 36.0 °F 31.1 °F 32.0 °F 86% 30.25 in 10.0 mi SSE 5.8 mph - N/A   Overcast
3:53 AM 37.0 °F 30.4 °F 32.0 °F 82% 30.25 in 10.0 mi SE 9.2 mph - N/A   Overcast
4:53 AM 37.9 °F 33.5 °F 30.9 °F 76% 30.27 in 10.0 mi SSE 5.8 mph - N/A   Overcast
5:53 AM 37.0 °F 28.9 °F 30.9 °F 79% 30.27 in 10.0 mi SE 12.7 mph - N/A   Overcast
6:53 AM 36.0 °F 29.6 °F 30.9 °F 82% 30.28 in 10.0 mi SE 8.1 mph - N/A   Overcast
7:53 AM 37.0 °F 34.5 °F 30.0 °F 76% 30.30 in 10.0 mi SE 3.5 mph - N/A   Overcast
8:53 AM 37.9 °F 35.5 °F 30.9 °F 76% 30.31 in 10.0 mi East 3.5 mph - N/A   Mostly Cloudy
9:53 AM 39.0 °F 35.7 °F 33.1 °F 79% 30.32 in 10.0 mi NE 4.6 mph - 0.01 in Rain Light Rain
10:09 AM 39.2 °F 35.9 °F 33.8 °F 81% 30.32 in 10.0 mi NE 4.6 mph - 0.00 in   Overcast
10:53 AM 41.0 °F 37.1 °F 32.0 °F 70% 30.33 in 10.0 mi ESE 5.8 mph - 0.00 in   Overcast
11:26 AM 42.8 °F 41.1 °F 33.8 °F 70% 30.33 in 10.0 mi Variable 3.5 mph - N/A   Overcast
11:53 AM 42.1 °F - 32.0 °F 67% 30.33 in 10.0 mi Calm Calm - N/A   Overcast
12:53 PM 43.0 °F 41.3 °F 30.0 °F 60% 30.33 in 10.0 mi ENE 3.5 mph - N/A   Mostly Cloudy
1:53 PM 46.0 °F 43.1 °F 30.9 °F 56% 30.33 in 10.0 mi West 5.8 mph - N/A   Mostly Cloudy
2:53 PM 46.0 °F - 28.9 °F 51% 30.32 in 10.0 mi Calm Calm - N/A   Clear
3:53 PM 46.9 °F - 24.1 °F 41% 30.32 in 10.0 mi NW 5.8 mph - N/A   Scattered Clouds
4:53 PM 48.0 °F - 26.1 °F 42% 30.32 in 10.0 mi Variable 5.8 mph - N/A   Scattered Clouds
5:53 PM 48.0 °F - 26.1 °F 42% 30.33 in 10.0 mi NNE 5.8 mph - N/A   Scattered Clouds
6:53 PM 46.9 °F - 24.1 °F 41% 30.33 in 10.0 mi NE 4.6 mph - N/A   Partly Cloudy
7:53 PM 45.0 °F 43.5 °F 23.0 °F 42% 30.34 in 10.0 mi Variable 3.5 mph - N/A   Clear
8:53 PM 43.0 °F - 26.1 °F 51% 30.36 in 10.0 mi Calm Calm - N/A   Clear
9:53 PM 39.9 °F - 27.0 °F 60% 30.38 in 10.0 mi Calm Calm - N/A   Clear
10:53 PM 39.9 °F - 28.9 °F 65% 30.38 in 10.0 mi Calm Calm - N/A   Clear
11:53 PM 37.9 °F - 28.9 °F 70% 30.39 in 10.0 mi Calm Calm - N/A   Clear